Wind_Speed
20 18 17 16 16 16 15 15 15 15 15 16 16 15 15 15 14 14 13 13 12 12 11 10 9 9 8 8 8 9 9 10 11 12 12 12 12 12 12 10 9 9 9 10 10 10 10 10 10 11 12 13 13 13 13 13 12 11 11 10 10 10 11 11 10 10 10 11 11 12 13 14 15 16 16 17 17 18 19 21 21 21 21 22 23 24 24 25
23 22 21 20 19 18 17 17 17 17 17 17 17 17 17 16 16 16 15 15 14 13 13 12 12 11 10 10 9 9 9 10 10 11 11 12 12 12 12 11 10 10 9 10 11 11 11 11 11 11 12 12 13 13 13 14 13 13 13 12 12 12 12 12 12 11 11 11 12 13 14 14 15 15 16 17 17 18 20 20 20 21 22 22 23 23 24 24
26 26 25 24 23 22 21 20 19 19 19 19 19 19 19 18 18 17 17 16 16 16 15 14 14 13 12 12 11 11 10 10 10 10 11 11 11 12 12 12 11 11 11 11 11 12 12 12 11 12 12 13 13 13 13 14 14 15 14 14 14 14 14 13 13 12 12 12 13 14 15 16 16 17 18 18 18 19 20 20 20 20 21 22 23 24 24 24
29 29 28 27 26 25 24 23 22 22 21 21 21 20 21 20 20 19 19 19 18 18 17 17 16 15 15 14 13 13 12 12 11 11 11 12 12 12 12 12 12 12 12 12 12 13 13 14 13 13 14 14 14 14 14 14 15 15 16 16 17 17 17 16 15 14 14 14 14 15 16 17 18 18 19 20 20 21 22 22 21 21 22 22 23 24 24 25
31 31 30 30 30 29 28 27 25 25 24 23 23 22 22 23 22 22 21 21 20 20 20 19 18 18 17 17 16 15 15 14 13 13 13 13 13 13 13 12 12 12 13 13 13 14 14 15 15 15 15 15 16 16 15 15 15 16 16 17 18 18 19 18 18 17 17 16 16 16 17 18 18 19 20 21 22 22 23 24 23 23 24 24 24 25 25 26
32 32 32 32 32 31 31 30 29 28 27 26 25 25 24 24 24 24 24 23 23 22 22 21 21 20 20 19 18 17 17 16 16 16 15 14 14 14 14 14 14 13 13 14 14 14 14 15 16 16 16 16 17 17 17 17 17 17 17 18 18 19 19 19 19 19 19 19 19 18 18 19 19 20 20 21 22 23 24 25 25 25 26 26 27 27 27 27
33 33 33 33 33 33 33 32 32 31 30 29 28 27 26 26 26 26 26 26 25 24 24 23 23 23 22 21 21 20 19 19 18 18 17 17 17 16 16 16 16 15 15 15 15 15 15 15 16 16 17 17 18 18 19 19 19 19 19 19 19 20 20 20 20 20 20 21 21 20 21 21 21 21 22 22 22 23 24 25 26 26 27 27 28 28 28 28
34 34 34 34 34 34 34 34 33 33 32 31 30 30 29 28 28 28 28 28 27 27 26 25 25 25 24 24 23 22 22 21 20 20 20 19 19 19 19 19 18 18 17 17 16 16 16 16 16 17 18 18 19 19 20 20 21 21 21 21 21 21 21 22 22 22 22 22 22 22 22 23 23 23 23 24 24 24 25 26 26 27 27 28 28 28 28 28
34 34 35 35 35 35 35 35 35 35 34 33 33 32 31 31 30 30 29 29 29 29 28 28 27 27 27 26 26 25 24 23 23 23 22 22 22 22 22 22 21 20 19 19 19 19 18 18 18 18 18 19 19 20 20 21 22 23 23 23 23 22 23 23 23 23 23 23 22 22 23 24 25 25 24 25 25 25 26 27 28 28 28 28 28 28 28 28
34 34 35 35 36 36 36 36 36 36 36 35 34 34 34 33 32 32 32 31 31 31 31 30 30 29 29 29 28 28 27 26 26 25 24 24 25 25 25 24 24 23 22 22 21 21 21 21 20 20 20 20 20 20 21 21 22 23 24 24 24 24 24 24 25 25 25 24 23 22 23 24 26 26 25 25 26 27 27 28 29 29 29 29 29 29 29 29
33 34 35 35 36 37 37 37 37 38 37 37 36 36 35 35 35 34 34 33 33 33 32 32 32 31 31 31 30 30 29 28 28 27 27 27 27 27 27 27 26 26 25 24 24 23 23 23 23 23 22 22 22 22 22 22 22 23 24 25 26 26 26 26 27 26 27 26 25 23 21 24 28 27 25 26 26 27 28 29 30 30 31 30 30 30 30 30
33 34 35 35 36 37 38 38 38 39 39 39 38 38 37 37 37 36 36 36 35 35 34 34 34 33 33 33 32 32 31 30 30 29 29 29 29 29 29 29 29 28 28 27 26 26 26 25 25 25 25 25 24 24 24 24 24 24 24 25 26 27 28 28 29 28 29 29 27 25 20 20 29 31 27 27 27 28 28 29 30 31 33 32 32 32 32 32
33 34 35 36 36 37 38 38 39 40 40 40 40 40 39 39 39 38 38 38 37 37 36 36 35 35 35 34 34 34 33 33 32 32 31 31 30 30 30 30 31 30 30 30 29 29 28 28 28 27 27 27 27 27 26 26 26 26 25 25 26 27 28 30 31 30 32 32 30 29 21 16 26 33 31 29 29 29 28 29 30 32 33 33 33 34 34 34
33 34 34 35 36 37 38 39 39 40 40 41 41 42 41 41 41 41 40 40 40 39 39 38 38 37 36 35 36 36 35 35 34 34 33 33 32 32 32 32 32 32 32 32 31 31 31 31 30 30 29 29 29 29 29 28 28 28 28 27 27 27 28 30 31 32 34 34 33 33 27 18 21 31 32 31 31 30 28 29 31 32 34 34 34 35 35 36
33 34 34 35 36 37 38 38 39 40 41 41 42 43 42 42 42 42 42 42 42 41 41 41 40 40 38 37 38 38 38 37 36 36 35 35 34 34 34 34 34 33 33 33 33 33 33 33 32 32 31 31 31 31 31 31 30 31 31 29 28 28 29 30 32 33 35 36 34 35 32 23 21 27 32 32 33 32 29 30 33 33 34 35 35 35 35 36
35 34 35 35 36 37 37 38 39 40 40 41 42 43 43 43 43 44 44 44 44 43 43 43 43 43 41 40 40 40 40 39 38 38 37 36 36 35 35 35 35 35 35 34 34 34 33 34 33 33 33 32 32 33 33 32 32 33 33 32 31 30 30 30 32 35 37 38 36 37 36 29 25 26 30 32 34 33 30 31 34 34 35 35 35 35 35 36
37 36 36 36 36 37 37 38 38 39 40 41 42 43 44 44 43 44 44 45 45 45 45 45 45 45 44 43 42 42 42 41 40 39 38 38 38 37 37 37 36 36 35 35 35 34 34 34 33 33 33 33 33 34 35 34 33 34 35 34 33 32 32 32 33 36 39 39 38 39 39 33 29 28 29 32 35 34 32 32 35 34 35 35 36 36 35 36
40 39 38 38 38 38 38 38 39 39 39 40 41 42 44 44 44 44 45 45 45 46 47 46 46 46 45 45 44 43 44 43 41 41 40 39 39 39 39 39 38 37 37 36 35 35 36 35 34 34 33 34 35 35 35 35 35 36 37 37 35 34 33 33 36 38 40 42 40 41 42 38 32 29 30 33 35 35 33 34 35 34 34 35 36 36 36 37
42 42 41 40 40 40 39 39 39 39 39 40 41 41 43 44 44 44 45 45 45 46 47 47 47 47 46 46 46 45 45 44 43 42 41 41 41 41 41 40 40 40 40 39 38 38 38 37 36 34 34 36 37 36 36 36 37 37 38 39 38 37 35 35 38 40 42 44 42 42 45 43 37 32 30 33 37 35 33 34 35 34 35 35 35 36 37 38
44 44 44 44 43 42 42 41 41 40 40 40 41 41 42 43 44 44 44 44 45 46 47 47 47 47 47 47 46 46 46 45 44 43 43 43 43 43 42 42 42 42 41 41 42 42 41 40 37 35 36 38 38 38 37 38 38 38 39 40 40 39 38 38 40 42 44 47 45 44 47 46 41 36 32 34 38 37 34 35 35 35 35 35 35 36 37 37
45 45 45 46 46 45 45 44 43 42 42 42 42 42 42 43 44 44 44 44 45 45 46 46 47 47 47 47 47 47 46 46 45 43 43 44 44 44 43 43 43 43 42 43 45 44 43 43 38 37 40 40 39 40 39 39 40 40 41 42 42 41 42 41 42 44 46 49 48 47 50 48 44 41 35 34 38 38 36 34 35 36 36 35 35 35 36 37
47 46 46 47 48 48 48 47 46 45 45 45 44 44 44 44 45 45 46 45 44 45 46 45 46 46 46 46 46 46 46 46 44 43 44 44 44 45 45 44 44 44 43 45 46 46 46 44 40 40 42 41 42 42 41 42 42 42 44 45 44 43 45 45 44 46 48 51 51 51 53 50 47 45 39 35 36 38 39 35 34 35 35 35 35 35 37 38
48 48 48 49 49 49 50 50 49 48 48 48 47 47 47 47 47 47 49 49 46 45 46 46 46 46 45 45 44 45 45 44 43 43 43 44 44 45 45 44 44 44 44 45 46 48 48 45 43 43 43 43 44 43 43 44 44 45 46 46 46 45 47 49 48 49 50 52 54 55 56 52 50 47 40 36 34 36 40 37 34 35 35 34 34 36 38 40
49 48 49 50 51 50 51 51 51 50 50 51 50 50 50 50 50 50 51 54 52 48 46 47 48 48 45 44 43 43 43 42 41 41 42 43 43 44 44 44 45 44 44 45 47 49 47 46 45 44 44 44 45 44 44 45 46 47 47 47 47 47 49 51 52 52 53 54 55 57 58 54 52 50 42 38 35 33 36 37 38 38 35 34 34 35 39 42
49 49 48 49 51 52 52 52 52 52 52 52 52 52 52 52 52 53 54 57 59 53 48 49 50 49 46 45 44 42 42 41 39 39 40 41 42 43 44 44 45 44 44 46 48 49 47 45 46 45 44 45 45 45 45 46 48 49 48 47 48 49 50 52 53 55 55 56 55 56 57 55 53 51 45 41 38 33 32 35 39 41 37 34 34 36 40 43
51 50 49 49 50 52 53 54 52 52 53 53 54 54 54 54 54 55 56 59 63 59 53 52 51 49 47 46 45 44 44 42 40 41 42 42 43 44 45 45 45 44 44 46 49 49 46 44 45 45 45 45 45 45 45 46 50 51 49 47 48 50 51 53 53 55 57 58 58 56 55 56 55 52 47 43 39 35 33 33 37 41 39 36 36 37 42 46
52 51 51 50 50 51 52 54 54 54 53 54 55 55 55 55 55 56 57 62 67 65 60 56 51 50 47 46 46 46 47 46 43 44 44 45 45 46 47 46 46 46 47 48 50 49 45 44 44 44 45 45 45 45 44 46 49 51 49 48 49 50 52 53 53 55 56 59 61 56 53 58 58 53 48 44 39 36 35 35 36 39 39 38 37 39 44 48
53 52 52 51 51 52 52 53 54 55 55 55 55 55 56 56 56 56 57 65 71 69 65 59 52 50 47 45 45 46 47 47 46 46 46 46 47 48 49 48 48 48 48 49 50 48 46 45 45 44 45 45 44 44 44 46 48 49 49 49 50 50 52 54 54 56 56 60 63 55 51 58 59 55 51 43 39 38 36 36 37 37 38 38 39 41 46 49
54 53 52 52 52 52 52 52 53 54 55 56 56 56 57 57 57 57 60 69 74 70 66 61 55 51 47 45 45 46 47 47 47 47 46 47 48 48 48 48 47 48 47 48 48 46 45 45 44 44 44 43 44 44 45 46 47 48 48 49 51 52 53 55 56 57 58 62 62 55 53 58 60 58 51 42 41 41 39 38 38 37 37 38 39 43 47 50
55 54 54 53 53 53 53 53 53 54 55 57 57 57 58 58 58 60 66 74 74 69 66 63 58 53 49 48 47 47 47 47 47 47 46 47 47 47 47 46 46 46 46 47 46 44 44 45 45 44 44 44 44 45 46 46 47 47 49 50 52 53 55 57 58 58 59 62 60 55 54 58 62 59 50 45 44 42 41 40 39 39 38 39 40 44 48 49
56 56 55 55 54 54 54 54 54 54 55 56 58 59 60 60 61 66 74 76 71 68 67 64 60 55 52 50 48 47 47 47 48 47 48 48 48 48 47 46 46 46 47 47 46 44 45 45 45 45 45 45 45 46 46 47 47 48 50 51 53 55 58 59 59 59 60 62 60 57 56 59 63 59 50 49 48 44 43 42 40 40 39 39 42 46 48 50
57 57 56 56 56 55 55 56 55 55 55 56 57 59 61 63 66 71 76 73 69 69 67 63 60 57 55 53 51 49 49 49 49 49 50 50 51 51 50 48 48 48 49 49 47 47 48 47 47 47 46 45 46 46 47 48 49 50 51 52 54 57 59 60 60 59 61 62 59 58 59 61 63 57 51 52 52 49 46 43 40 39 38 39 44 48 50 51
59 58 57 56 56 56 57 57 57 57 57 56 57 58 60 65 69 71 72 70 69 68 66 63 61 60 58 57 55 53 52 52 51 51 52 52 53 53 52 52 51 50 51 51 51 51 51 50 49 47 46 46 47 48 49 50 51 52 53 54 55 57 58 59 59 60 63 62 59 59 61 63 61 56 55 57 56 53 47 42 40 39 38 41 46 50 50 52
61 60 60 58 57 57 58 58 58 58 59 59 59 59 60 66 69 68 68 67 67 66 64 64 62 61 60 60 59 57 55 53 53 52 53 54 55 55 54 54 54 54 54 54 55 55 54 54 52 49 48 49 49 49 50 52 53 54 54 55 56 55 55 57 58 60 62 61 61 62 63 63 61 58 60 62 60 56 49 42 40 38 39 44 48 49 49 53
63 63 62 61 59 59 61 61 61 61 61 62 62 62 65 68 69 66 65 65 65 65 64 63 62 62 63 62 62 59 56 55 54 54 55 56 57 57 57 56 55 55 55 56 56 55 56 57 55 52 52 51 51 52 52 53 54 54 53 54 54 52 52 55 57 58 59 61 62 62 63 62 60 61 64 64 62 57 48 42 41 40 42 46 49 48 50 54
67 66 65 64 62 62 64 64 63 64 65 65 66 67 67 67 66 65 65 64 64 64 64 64 64 64 65 64 63 61 59 58 57 58 59 59 59 59 59 58 55 55 55 55 55 55 57 57 55 55 55 54 54 55 54 54 54 53 51 51 50 50 51 55 57 56 58 61 61 61 63 64 64 67 69 65 61 54 47 43 43 42 43 47 50 50 52 56
69 69 68 67 66 68 68 68 69 71 71 71 72 69 66 65 65 65 65 65 64 64 64 66 65 65 66 65 64 62 61 61 62 62 61 61 62 62 60 58 56 55 53 53 54 54 55 56 55 56 57 57 58 57 56 55 53 52 51 50 51 53 55 56 57 58 59 62 63 63 66 69 71 72 70 64 57 52 48 47 46 44 45 48 51 51 53 57
70 71 70 68 69 71 72 72 73 74 74 75 74 69 67 66 65 65 66 67 66 65 65 66 65 65 66 66 65 64 63 63 63 63 63 63 64 63 60 57 56 54 53 53 55 55 55 56 57 58 60 60 58 58 58 56 55 54 54 53 55 57 58 57 58 60 62 65 68 67 68 72 72 70 66 61 54 51 50 48 48 47 47 50 51 51 54 57
69 69 68 66 68 71 70 70 71 71 72 72 70 66 65 65 64 65 66 67 67 68 69 68 67 67 67 67 66 65 64 64 63 63 63 63 64 63 60 59 58 56 55 56 57 57 56 58 60 61 61 61 60 61 60 58 58 58 58 58 59 61 61 61 62 64 65 66 68 68 69 70 67 64 62 57 51 48 47 47 49 49 49 51 52 53 55 57
71 70 67 65 68 70 71 71 72 73 73 71 68 65 64 63 62 64 66 67 69 71 72 72 70 70 70 69 68 67 66 66 65 65 66 66 66 65 63 62 61 59 58 59 59 60 60 61 63 63 63 64 64 63 63 62 62 62 62 62 63 64 65 66 68 69 68 66 67 68 70 69 66 63 59 54 49 47 46 48 50 49 49 51 53 54 56 58
72 72 67 65 68 71 71 72 74 74 74 73 71 70 68 65 62 62 63 64 65 67 67 68 68 69 69 69 69 67 67 68 67 68 69 68 67 67 65 63 63 62 62 63 63 63 63 63 62 63 65 66 64 63 65 67 66 66 66 65 65 66 68 70 71 69 67 66 67 70 72 71 67 61 56 53 50 49 48 50 52 50 50 52 54 55 56 57
73 72 67 66 69 68 67 67 67 66 67 68 68 67 66 65 63 63 62 61 62 61 61 62 62 63 64 64 65 64 65 67 68 69 70 69 68 67 64 61 60 61 62 64 65 64 63 63 62 63 63 62 62 64 67 69 69 70 70 68 67 67 66 66 66 63 63 66 68 72 75 73 65 56 52 52 52 50 49 49 51 52 52 54 55 55 56 57
78 77 73 73 74 73 73 73 70 67 65 64 64 64 65 66 66 65 65 65 65 64 64 64 64 64 64 64 64 65 66 68 70 71 71 70 68 66 62 60 61 62 63 64 65 64 62 62 62 63 62 62 64 67 69 70 71 71 70 67 66 64 61 60 61 62 64 67 69 73 77 73 62 52 49 51 52 51 48 47 50 53 54 54 54 55 56 57
77 77 76 78 80 81 83 82 81 79 75 70 69 68 67 68 68 67 67 67 67 67 68 69 69 69 68 66 66 66 67 69 71 71 70 69 68 65 63 62 63 64 64 63 64 64 64 65 64 63 64 67 69 69 70 70 69 68 66 65 64 62 60 61 62 64 68 68 69 73 76 69 58 52 51 52 52 50 47 47 51 52 53 53 54 55 56 56
76 76 76 75 77 82 85 83 83 84 81 79 78 75 73 72 71 69 69 68 68 69 71 72 73 73 71 70 70 70 70 71 71 70 70 69 67 64 63 63 62 63 62 60 61 64 67 69 68 67 69 71 70 67 66 65 64 64 63 63 63 62 61 62 62 66 71 72 71 74 75 68 58 55 55 53 51 50 48 50 52 51 52 55 55 55 55 54
80 82 81 77 76 80 82 81 82 83 82 82 83 81 79 78 75 73 73 73 72 71 72 73 73 72 72 71 70 70 70 70 71 72 72 71 70 68 66 65 63 61 60 59 60 63 67 70 69 69 70 70 65 61 59 60 62 62 62 63 63 62 63 63 66 71 74 76 75 73 72 70 63 58 54 51 51 52 51 52 52 51 54 56 54 54 54 54
83 85 85 82 81 82 82 81 82 83 81 81 83 81 80 79 78 77 77 77 75 74 73 70 67 66 65 65 67 69 70 71 72 73 71 69 70 69 67 65 63 61 62 62 63 65 69 71 70 69 70 69 67 65 63 64 66 66 65 65 63 63 64 66 71 74 73 77 79 72 70 74 70 60 53 49 52 55 53 52 52 54 56 55 53 54 56 58
88 87 87 86 86 86 84 81 80 82 82 82 83 82 80 80 79 78 78 77 76 76 76 75 70 67 66 66 68 70 68 66 66 66 66 67 69 69 68 67 66 67 67 67 68 69 71 73 71 71 73 73 72 70 68 69 70 69 67 66 64 64 67 70 73 73 72 78 81 74 73 75 71 62 54 51 53 55 54 54 55 56 55 54 56 58 59 60
91 90 89 89 90 91 89 83 78 78 79 80 82 84 83 83 82 80 78 77 76 76 77 78 76 74 73 71 70 70 67 64 64 64 64 64 65 65 65 65 65 66 67 68 69 69 71 73 71 72 74 73 71 70 68 69 71 71 71 70 68 69 72 75 76 74 73 78 80 76 76 75 67 62 58 55 55 56 56 56 56 55 56 57 59 61 61 60
91 90 89 91 93 93 94 91 85 81 79 78 80 84 84 85 83 80 80 79 77 76 77 77 76 74 73 72 72 73 71 70 70 69 66 65 64 63 62 61 61 62 64 65 67 69 72 73 72 72 75 76 74 72 71 72 74 75 75 74 73 74 76 77 76 74 74 76 76 75 76 73 65 61 60 58 56 56 58 57 55 55 58 60 61 62 63 60
91 90 89 90 92 92 92 93 91 88 84 80 79 81 84 86 83 80 80 81 80 79 80 79 77 75 74 76 78 79 78 77 78 77 75 76 76 76 74 70 66 64 63 63 64 65 67 69 69 71 77 79 76 75 76 77 76 77 78 76 73 72 72 72 72 73 74 75 73 72 74 72 64 61 62 60 56 58 61 58 56 58 61 62 63 64 63 59
90 90 90 91 93 93 92 92 91 92 91 87 82 80 81 82 80 79 83 85 84 83 83 82 80 80 81 82 81 80 80 79 79 78 78 78 77 78 79 78 76 74 72 70 70 69 69 71 71 72 78 79 74 73 76 77 77 79 79 75 69 67 67 68 70 72 72 72 72 72 73 69 63 61 62 60 58 64 66 61 58 62 64 64 64 64 63 59
Wind_Direction
253 252 252 251 251 252 252 252 252 254 257 262 265 268 271 274 277 280 282 285 288 289 291 293 295 297 300 306 312 320 328 335 340 343 348 354 355 354 352 350 349 350 351 351 354 356 356 351 348 348 344 338 334 333 333 335 337 336 335 335 334 334 336 338 341 343 340 339 338 334 330 328 326 323 320 318 316 311 306 302 303 301 298 295 293 291 290 290
253 253 253 252 252 252 253 254 254 254 255 258 262 265 266 268 271 273 275 278 280 281 282 283 285 286 288 291 295 301 308 317 324 329 338 343 345 347 348 346 343 342 342 342 343 345 348 350 347 346 344 338 334 330 329 329 331 332 331 330 329 329 330 330 332 335 336 337 339 337 334 332 330 327 324 322 321 315 311 311 310 306 301 298 295 292 291 290
252 253 253 254 253 253 252 253 254 255 255 257 259 262 264 265 266 268 270 272 274 275 276 277 278 279 280 281 284 288 292 300 307 314 322 326 331 337 340 340 338 336 335 335 336 336 338 341 342 343 342 339 337 333 330 327 326 327 327 326 325 325 325 324 325 327 329 331 334 334 332 329 328 327 324 325 324 318 316 316 313 308 303 300 296 294 292 290
250 252 253 254 255 254 254 253 253 254 255 256 257 259 263 265 265 266 267 269 270 272 273 273 273 274 275 276 278 280 283 288 293 298 306 310 315 323 327 330 332 331 330 330 331 331 332 332 335 339 338 336 336 336 334 331 330 329 327 327 325 324 324 322 322 323 324 326 328 330 329 327 327 327 325 325 324 320 318 317 315 311 307 304 300 297 295 293
249 250 252 253 255 255 255 254 254 254 254 255 257 258 260 263 265 265 266 266 267 269 270 271 271 271 272 272 273 275 277 281 285 289 294 297 301 308 312 316 321 323 325 325 325 326 327 327 329 332 332 332 332 333 334 333 333 331 329 329 327 325 324 322 320 320 321 321 323 326 325 325 327 328 327 327 326 325 322 319 317 314 311 308 304 302 300 298
250 250 251 252 253 254 255 255 255 255 254 254 256 257 258 260 263 264 265 265 265 266 268 268 269 270 270 270 271 271 273 275 280 284 286 287 291 296 300 303 309 313 316 318 320 321 322 323 323 324 326 327 328 328 329 330 330 330 329 329 328 326 325 323 320 319 318 318 320 321 321 321 323 324 324 327 328 327 325 323 321 318 314 311 308 306 304 302
252 252 252 252 252 253 254 255 255 255 255 255 255 256 257 258 260 262 264 264 264 264 265 266 267 268 268 269 269 270 270 272 275 278 280 282 284 287 291 294 298 303 306 309 312 314 315 316 317 317 319 321 323 324 325 325 326 326 327 327 327 326 326 325 322 320 318 317 317 318 317 317 318 319 320 322 324 325 324 323 322 320 317 314 311 308 306 304
254 254 254 254 253 253 254 254 255 255 255 255 255 256 256 257 259 260 262 263 264 264 263 264 264 265 267 267 268 268 268 270 272 274 276 279 280 282 285 287 289 293 297 300 303 306 308 310 311 313 314 317 318 320 321 321 322 322 323 324 324 324 324 324 323 322 320 318 317 317 316 316 316 316 317 318 319 320 320 320 320 319 317 315 312 310 307 305
256 256 256 256 255 255 255 256 256 256 255 255 255 256 256 257 258 259 260 261 263 263 263 263 263 263 264 265 267 267 267 269 270 271 274 276 277 279 280 281 283 286 289 293 296 300 303 304 305 307 309 312 313 314 316 317 317 318 319 320 321 322 321 322 321 321 320 319 319 319 318 317 315 314 315 316 316 316 316 316 315 315 315 314 312 310 308 306
258 257 257 257 257 257 257 257 257 257 257 257 257 257 257 257 258 259 259 260 261 262 262 262 262 263 263 264 265 266 267 268 269 270 272 274 275 276 278 278 279 281 284 286 289 293 296 299 300 302 304 305 307 309 311 312 313 314 315 316 318 319 319 319 318 318 317 317 318 318 320 320 314 313 316 315 315 314 313 312 311 311 310 310 309 308 307 306
259 258 257 257 258 258 258 258 258 259 259 259 259 258 258 259 258 259 260 260 261 261 261 262 262 262 262 263 264 265 267 268 268 270 270 271 273 275 276 277 277 278 280 282 284 287 290 293 295 297 299 300 302 303 305 307 309 310 311 312 315 316 317 318 316 316 315 314 315 316 323 323 313 312 316 315 315 314 313 311 310 309 307 306 305 304 304 303
259 259 258 258 258 259 259 260 260 260 261 261 261 260 260 260 260 260 261 261 262 262 262 262 262 262 262 263 264 264 266 267 268 269 270 271 272 273 275 276 277 277 278 279 280 283 285 288 290 293 295 297 298 298 300 303 304 305 307 309 312 314 316 316 316 316 315 313 314 313 323 326 314 312 315 315 315 314 314 313 311 309 306 305 304 303 302 302
260 260 259 258 258 258 259 260 261 262 262 262 263 262 262 263 263 263 263 263 264 264 265 264 264 263 263 264 265 265 266 267 268 269 270 271 272 273 275 276 276 277 277 278 279 280 282 284 286 289 292 294 295 296 298 299 300 301 302 306 308 310 313 314 315 316 313 312 313 313 319 327 313 310 313 313 313 313 315 314 311 308 306 305 304 303 302 302
261 260 260 260 259 259 258 259 260 261 262 263 264 264 264 264 265 266 266 266 266 267 267 267 267 266 265 266 267 267 267 268 269 270 271 272 273 275 276 276 277 277 277 277 278 279 280 282 283 286 289 291 293 294 295 297 298 298 299 302 304 307 310 311 312 313 311 310 312 311 314 324 314 307 309 311 311 311 314 313 309 307 306 306 305 304 303 302
261 261 261 260 260 260 259 259 259 260 261 262 263 264 264 264 266 267 267 268 268 268 269 269 270 269 268 268 269 269 269 270 271 272 273 274 276 277 277 278 278 279 278 278 278 279 280 281 281 284 287 289 291 292 293 295 297 297 297 300 302 304 306 308 309 310 308 306 310 310 311 320 317 307 307 309 308 309 313 311 308 307 307 308 308 305 304 302
261 261 261 261 261 261 261 260 260 260 261 261 263 264 264 264 265 267 267 268 269 270 270 271 271 271 271 270 270 271 271 271 272 273 274 276 277 278 278 279 280 281 281 281 281 281 281 281 282 283 286 289 291 290 291 294 295 295 296 298 301 303 303 305 307 306 304 304 307 307 309 316 316 310 308 307 306 307 310 309 306 307 309 310 310 307 304 302
262 262 261 261 261 261 261 261 261 260 261 261 262 263 264 264 264 266 267 268 269 270 271 271 271 272 272 272 272 273 273 273 273 274 276 277 278 278 279 280 281 281 282 283 283 284 283 282 283 285 288 290 290 289 290 293 294 294 294 296 299 301 302 304 304 302 301 302 305 306 307 311 314 313 310 307 304 305 308 306 304 306 309 311 310 308 306 303
262 262 262 262 262 262 262 261 261 261 261 261 262 263 264 265 264 265 266 267 268 269 270 271 271 272 273 274 274 274 274 274 274 275 276 277 278 278 279 280 281 282 282 283 283 283 283 283 284 287 290 290 288 289 291 293 293 293 293 295 297 299 301 303 301 301 302 302 304 305 305 307 311 313 311 306 303 304 306 303 302 306 308 309 310 310 307 305
261 262 262 262 262 262 262 261 261 261 261 261 261 262 263 264 265 265 265 266 267 268 269 270 270 271 273 273 274 274 275 276 276 277 278 278 278 279 279 280 281 282 282 283 283 282 282 283 284 288 289 287 287 289 291 292 293 293 293 294 296 298 300 300 299 301 302 301 303 305 303 305 310 313 311 306 302 304 304 301 301 304 305 306 309 311 309 306
261 261 262 262 262 262 262 262 262 262 261 261 261 262 262 263 264 264 265 266 266 267 268 269 269 270 271 272 273 274 275 276 277 278 279 279 279 279 279 280 281 281 282 283 282 282 282 283 285 287 286 285 288 289 290 291 292 293 293 294 296 298 299 298 298 300 300 300 302 303 302 305 310 311 310 306 302 303 302 300 301 302 302 303 307 311 310 307
261 261 262 262 262 262 263 262 262 263 262 262 261 262 263 264 264 264 264 264 265 266 267 268 269 269 270 271 271 273 275 276 277 279 279 279 279 280 280 280 280 281 282 282 282 282 283 283 285 286 285 287 289 289 290 291 291 292 293 294 296 298 298 298 297 298 299 299 302 302 302 305 309 309 309 306 302 302 301 300 300 300 300 302 306 309 308 305
263 262 262 263 262 263 263 263 263 264 264 263 263 263 264 264 265 266 265 264 264 266 267 267 268 269 269 269 271 273 274 275 277 278 278 279 279 280 280 280 280 281 281 282 282 283 282 283 286 285 286 288 289 289 290 290 291 292 292 293 296 298 298 297 297 298 298 299 301 302 302 305 308 307 308 305 302 301 299 299 299 297 299 302 305 306 304 303
265 263 263 263 263 263 263 263 264 264 264 265 265 265 264 265 266 266 267 267 264 263 266 268 269 269 269 270 271 272 273 274 275 276 277 278 278 279 279 280 280 280 281 282 282 282 282 284 285 285 286 288 288 288 289 290 291 291 291 293 295 297 297 297 298 297 298 299 301 302 302 305 307 306 306 304 301 299 297 299 300 299 301 303 304 304 303 302
267 266 264 263 263 263 263 264 264 264 265 265 266 266 265 265 266 266 267 268 266 263 263 267 268 269 270 272 273 274 275 276 276 276 277 278 279 279 280 281 281 281 282 282 282 281 283 284 285 285 286 286 286 287 288 289 290 289 290 292 294 295 296 297 297 297 297 298 300 302 303 306 306 305 306 304 302 298 297 302 305 304 305 304 304 303 300 299
268 268 267 266 264 264 263 264 264 264 265 265 266 266 266 266 267 267 267 268 268 265 262 263 265 267 269 272 274 276 277 278 278 279 279 279 280 280 281 282 282 283 284 283 282 282 283 285 285 286 285 285 285 286 288 289 288 288 289 292 293 294 295 295 296 297 297 298 299 300 303 307 306 304 307 308 306 302 302 306 307 307 308 307 305 302 297 295
267 268 269 269 268 266 264 264 265 265 265 266 266 266 267 268 268 268 269 269 269 268 264 261 262 265 267 269 272 274 276 277 278 278 279 279 280 280 281 282 283 284 284 283 282 282 284 286 286 286 286 285 285 287 288 288 287 288 290 292 292 293 294 294 294 295 296 298 298 298 303 306 303 302 307 309 306 306 308 308 305 305 309 309 306 301 297 295
266 267 268 269 270 269 268 267 266 266 266 266 266 266 267 268 269 269 270 270 269 269 267 264 264 265 267 267 269 271 272 274 275 274 275 276 277 279 279 280 282 282 282 282 282 284 286 286 286 286 286 286 286 287 287 286 287 289 291 292 292 292 292 292 293 293 294 297 296 298 302 302 300 302 306 306 306 309 310 308 305 305 308 309 306 301 297 295
264 265 266 267 268 269 269 269 268 268 268 267 267 267 267 267 268 269 270 270 269 269 269 269 268 269 269 270 270 271 271 272 272 272 273 274 275 276 277 278 279 279 280 281 282 284 286 285 285 285 285 286 287 287 286 285 287 289 291 292 291 290 290 290 291 291 293 295 296 299 301 298 298 300 302 306 309 310 310 308 308 307 307 307 305 301 297 296
263 264 264 265 266 267 268 268 269 268 268 267 268 268 267 267 268 268 268 267 267 269 271 273 273 273 273 273 273 272 273 273 273 272 272 272 273 274 275 276 277 278 279 279 281 283 284 284 284 284 285 285 285 285 285 286 287 289 290 290 289 289 289 289 289 290 292 293 296 300 298 296 297 297 300 307 308 309 311 310 309 309 307 306 303 299 296 297
264 264 265 265 265 266 267 268 268 268 268 267 267 267 267 267 267 267 265 264 266 269 272 274 275 275 276 275 274 274 274 274 274 274 274 273 273 273 273 274 276 277 278 278 280 281 282 282 282 282 283 283 283 284 285 285 286 287 287 287 288 288 288 288 288 290 291 293 296 297 296 295 294 296 303 307 305 307 310 309 310 310 307 305 302 298 297 299
264 264 265 266 266 266 267 267 268 269 269 268 267 266 265 266 266 264 262 264 267 270 271 273 276 277 277 276 276 275 274 274 274 274 274 274 274 273 274 275 276 277 277 278 279 280 279 279 280 280 280 281 283 284 284 285 285 285 285 286 286 287 287 288 289 291 291 291 293 294 294 292 290 296 305 304 302 305 306 308 311 309 307 305 302 298 299 302
265 265 265 266 266 267 267 267 268 269 269 268 268 266 265 264 263 261 262 265 268 269 271 274 276 278 278 277 276 276 275 274 274 274 274 275 275 275 276 277 277 278 278 279 280 279 278 278 278 279 280 281 283 283 284 284 284 284 285 285 286 287 288 289 291 292 290 290 292 293 292 290 292 299 303 300 300 303 305 310 311 307 307 306 302 300 302 303
266 266 266 266 267 268 268 268 268 268 268 268 268 267 266 264 263 263 264 265 268 271 274 276 277 278 278 277 276 275 274 274 274 274 274 275 275 276 278 279 280 281 281 282 282 281 280 280 280 281 282 282 283 283 283 283 284 284 285 285 285 287 289 291 293 292 290 290 292 292 290 291 296 300 300 297 299 302 308 312 309 306 308 306 302 301 303 302
267 267 267 267 267 267 267 268 268 268 268 268 267 266 265 265 266 267 267 268 269 271 274 275 277 277 277 277 276 275 275 274 274 274 275 275 275 276 277 279 281 282 283 284 283 284 285 284 283 284 284 283 283 282 283 283 283 284 285 285 286 288 291 292 291 290 290 291 291 291 291 293 297 298 296 296 299 305 311 312 308 307 308 305 303 304 304 300
267 267 268 268 268 267 267 267 267 267 267 267 268 266 264 265 269 272 273 272 271 271 272 273 275 276 275 275 275 276 276 276 275 275 275 274 274 275 276 277 279 281 283 284 285 286 285 285 286 286 285 284 283 282 282 283 283 284 285 285 288 291 292 290 288 288 290 290 290 291 292 293 296 295 293 295 301 306 311 312 309 308 308 305 304 306 303 299
267 267 267 267 267 267 267 266 266 266 265 265 265 265 265 266 270 273 274 274 273 272 273 273 273 274 274 275 275 276 277 277 276 275 275 275 275 276 276 278 280 282 283 284 284 284 284 284 285 285 285 283 282 282 282 282 282 282 283 286 289 290 288 288 287 288 288 288 291 293 293 294 295 292 292 297 303 306 309 310 307 307 308 306 304 305 302 298
268 268 268 268 267 267 268 268 268 267 266 264 264 268 271 270 270 271 272 273 273 272 272 272 273 274 275 275 276 276 276 276 276 276 276 277 277 277 278 281 282 283 284 284 283 283 283 283 283 282 282 281 282 283 283 281 281 282 284 287 288 286 285 286 287 287 288 288 290 292 293 294 292 291 295 301 305 308 309 308 307 308 308 305 304 303 300 297
269 269 269 269 269 268 269 270 269 269 267 265 267 273 275 275 274 272 271 271 272 272 272 271 272 273 273 274 274 275 275 275 276 277 277 278 278 278 280 281 282 282 284 283 282 282 282 281 280 279 280 281 283 283 282 282 283 286 287 286 285 285 285 285 285 287 288 287 288 292 293 291 290 293 298 302 306 309 309 307 307 308 306 304 303 301 297 296
267 267 267 268 268 268 268 268 268 269 269 269 271 275 276 276 275 273 272 272 272 272 272 272 272 272 272 273 273 274 275 276 276 277 278 278 278 279 280 281 281 282 283 283 282 281 280 278 278 280 282 282 282 281 282 285 287 287 286 285 285 285 285 285 286 286 286 286 289 291 291 290 292 295 299 303 308 309 307 307 307 306 305 303 301 298 295 294
265 265 264 265 265 266 267 267 267 268 270 272 273 273 273 274 273 272 272 272 271 270 270 271 272 272 273 274 274 275 276 277 277 277 276 276 277 277 278 280 282 283 282 281 280 280 278 277 277 280 281 280 281 283 284 285 284 284 284 284 285 285 286 286 285 285 285 286 289 288 288 291 295 298 303 307 309 308 307 308 308 305 303 301 298 295 293 292
264 264 264 264 264 265 265 266 266 267 268 270 269 268 269 272 273 271 270 269 269 269 269 270 271 272 274 275 276 277 277 277 277 276 276 276 277 277 279 282 283 283 281 280 279 278 278 277 278 279 279 280 282 283 283 283 283 284 283 283 285 286 286 285 284 286 287 286 285 283 284 290 296 301 307 309 307 307 309 309 307 303 300 298 295 293 292 292
261 261 261 261 262 262 262 262 263 264 265 266 267 267 268 269 269 268 267 267 268 269 270 271 272 274 274 275 276 276 276 276 277 277 278 278 279 280 282 284 285 283 281 279 278 278 278 278 278 278 278 279 280 280 281 281 282 282 283 287 289 289 288 286 286 286 283 281 281 280 281 288 296 304 308 306 304 306 308 308 304 300 298 296 295 295 294 294
261 261 260 259 258 258 259 261 262 262 263 265 267 267 266 265 265 265 265 266 268 270 271 273 273 274 274 274 275 275 276 278 278 278 279 280 281 283 284 284 283 282 281 280 280 278 277 277 277 277 277 276 277 278 279 280 281 283 288 290 288 286 287 286 284 282 280 282 283 280 280 289 299 307 306 303 303 306 309 307 302 298 296 295 294 295 295 294
262 263 262 261 260 258 258 259 260 261 263 264 265 264 264 264 264 265 265 266 267 270 271 272 272 273 273 274 275 275 276 276 277 278 279 281 282 283 283 282 282 281 281 281 280 277 275 274 273 273 272 272 274 277 280 282 284 286 287 284 281 283 284 283 283 283 284 286 286 281 283 292 303 307 303 301 303 307 310 305 299 298 296 293 292 293 293 294
258 259 260 260 261 260 259 259 260 261 261 261 261 262 262 263 263 265 266 267 268 269 270 271 271 272 273 273 273 273 274 276 278 279 280 281 282 282 282 282 281 280 279 279 278 276 274 273 272 271 272 273 277 281 283 284 283 281 280 278 279 281 282 283 286 285 285 287 286 284 288 297 304 303 301 302 305 307 307 303 299 298 293 290 290 291 293 292
256 256 258 259 260 261 261 260 260 261 261 261 261 261 261 262 263 264 266 266 267 268 269 270 271 271 271 271 271 273 275 277 278 278 279 281 282 282 281 279 278 277 277 277 277 276 274 274 274 275 276 277 280 283 283 282 278 277 278 278 279 281 282 284 285 284 286 288 286 287 294 300 301 300 300 302 305 306 305 302 298 293 287 287 289 290 290 286
254 255 256 258 259 261 261 261 261 262 262 262 261 261 262 263 264 263 263 264 264 266 267 267 268 269 270 272 275 275 276 277 277 278 279 280 280 279 278 277 276 276 276 276 276 275 275 275 276 277 277 279 281 282 282 280 278 278 278 279 280 281 282 283 282 283 285 286 286 292 298 298 299 301 301 304 306 306 303 298 292 287 286 288 289 287 286 283
254 255 256 257 258 259 259 259 260 262 261 260 260 260 260 260 261 261 261 262 262 263 264 264 264 267 270 273 275 274 273 274 276 277 277 276 275 275 275 275 275 276 276 275 274 274 274 274 275 277 278 279 280 280 280 278 277 278 278 278 280 281 281 281 281 283 284 286 290 296 297 294 299 304 304 305 307 303 297 293 290 288 288 287 286 286 286 284
254 255 256 257 257 258 258 258 258 258 258 257 258 259 258 257 257 259 260 261 261 261 263 264 264 266 269 271 272 272 271 271 273 276 278 276 273 273 273 273 273 274 273 272 273 273 273 274 277 279 280 279 279 280 280 278 277 277 277 278 280 281 281 281 282 285 287 289 292 295 293 293 300 307 307 305 302 297 293 293 291 288 286 284 284 286 287 286
255 255 256 258 258 258 259 259 259 258 257 256 257 258 258 257 257 258 259 261 262 263 264 265 265 265 267 268 270 271 271 271 274 277 277 275 274 274 274 274 274 273 272 272 273 274 275 277 279 280 280 279 279 281 281 279 278 278 278 279 280 281 282 284 286 288 288 288 290 290 290 293 302 310 307 299 295 294 294 292 288 285 284 282 283 286 287 285
256 256 256 257 258 259 259 259 260 260 259 257 256 256 256 256 257 259 261 261 263 264 264 265 265 265 265 266 268 270 271 273 276 276 274 274 275 276 275 275 274 273 272 274 274 276 278 280 281 282 280 280 282 283 281 281 279 276 277 279 282 284 287 288 289 288 286 286 287 286 288 295 305 307 300 294 294 297 296 291 285 284 284 282 283 285 285 284
257 257 256 256 257 257 257 258 260 261 260 259 259 258 257 256 257 259 262 262 262 263 265 265 265 265 264 265 268 270 272 273 274 273 272 273 273 274 274 273 273 272 272 273 274 276 278 280 283 283 281 282 283 282 280 278 274 273 277 283 287 289 291 290 287 286 286 286 285 285 290 297 301 298 294 293 296 298 296 291 287 286 284 283 284 284 283 283
Height
5896 5897 5897 5897 5897 5897 5898 5898 5898 5898 5898 5897 5897 5897 5897 5897 5897 5897 5897 5897 5897 5897 5896 5896 5895 5895 5894 5894 5894 5893 5893 5892 5891 5891 5890 5889 5888 5888 5887 5886 5885 5884 5884 5883 5882 5882 5880 5879 5878 5877 5876 5875 5874 5873 5873 5872 5871 5871 5870 5869 5868 5867 5866 5865 5865 5864 5863 5862 5862 5861 5860 5859 5858 5857 5857 5856 5855 5855 5853 5852 5852 5852 5851 5850 5850 5849 5849 5848
5894 5895 5895 5895 5896 5896 5896 5896 5896 5896 5896 5896 5896 5895 5896 5896 5895 5895 5895 5895 5895 5895 5895 5894 5894 5894 5893 5893 5893 5892 5892 5891 5890 5890 5889 5888 5888 5887 5886 5885 5884 5884 5883 5882 5882 5881 5880 5879 5878 5876 5875 5875 5874 5873 5872 5871 5870 5870 5869 5868 5867 5866 5865 5864 5864 5863 5862 5861 5860 5859 5859 5858 5857 5856 5855 5855 5854 5853 5852 5851 5851 5850 5849 5848 5848 5847 5846 5846
5892 5892 5893 5893 5893 5894 5894 5894 5894 5894 5894 5894 5894 5894 5894 5894 5894 5894 5894 5894 5894 5893 5893 5893 5893 5892 5892 5892 5891 5891 5890 5890 5889 5889 5888 5887 5887 5886 5885 5884 5884 5883 5882 5881 5880 5880 5879 5878 5877 5876 5875 5874 5873 5872 5871 5871 5870 5869 5868 5867 5866 5865 5864 5863 5862 5862 5861 5860 5859 5858 5857 5856 5856 5855 5854 5853 5852 5851 5850 5849 5849 5848 5847 5846 5845 5845 5844 5843
5889 5890 5890 5891 5891 5891 5892 5892 5892 5892 5892 5892 5892 5892 5892 5892 5892 5892 5892 5892 5892 5892 5892 5891 5891 5891 5891 5890 5890 5889 5889 5888 5888 5887 5887 5886 5885 5885 5884 5883 5883 5882 5881 5880 5879 5878 5877 5877 5876 5875 5873 5873 5872 5871 5870 5870 5869 5868 5867 5866 5865 5864 5863 5862 5861 5860 5859 5859 5858 5857 5856 5855 5854 5853 5852 5851 5850 5849 5848 5847 5847 5846 5845 5844 5843 5842 5841 5840
5887 5887 5888 5888 5889 5889 5889 5889 5890 5890 5890 5890 5890 5890 5890 5890 5890 5890 5890 5890 5890 5890 5890 5890 5889 5889 5889 5889 5888 5888 5888 5887 5886 5886 5885 5885 5884 5883 5883 5882 5881 5881 5880 5879 5878 5877 5876 5875 5874 5873 5872 5871 5870 5869 5869 5868 5867 5867 5866 5864 5863 5862 5861 5860 5859 5858 5858 5857 5856 5855 5854 5853 5852 5852 5850 5850 5849 5847 5846 5845 5844 5843 5842 5841 5840 5839 5838 5837
5884 5885 5885 5885 5886 5886 5886 5887 5887 5887 5888 5888 5888 5888 5888 5888 5888 5888 5888 5888 5888 5888 5887 5887 5887 5887 5887 5887 5887 5886 5886 5885 5885 5884 5884 5883 5883 5882 5882 5881 5880 5879 5879 5878 5877 5876 5875 5874 5873 5872 5871 5870 5869 5868 5867 5866 5865 5865 5864 5863 5862 5861 5860 5859 5858 5857 5856 5855 5854 5853 5852 5851 5850 5849 5848 5847 5846 5845 5844 5842 5842 5840 5839 5838 5837 5836 5835 5834
5881 5882 5882 5882 5883 5883 5883 5884 5884 5884 5885 5885 5885 5885 5885 5885 5885 5885 5885 5885 5885 5885 5885 5885 5885 5885 5884 5884 5884 5884 5884 5883 5883 5882 5882 5882 5881 5881 5880 5879 5879 5878 5877 5876 5876 5875 5874 5873 5872 5871 5870 5869 5868 5866 5865 5864 5863 5863 5862 5861 5860 5859 5858 5857 5856 5855 5854 5853 5852 5851 5850 5849 5848 5847 5846 5845 5844 5843 5842 5840 5839 5838 5836 5835 5834 5833 5832 5831
5879 5879 5879 5880 5880 5880 5880 5880 5881 5881 5881 5882 5882 5882 5883 5883 5882 5882 5883 5882 5882 5882 5882 5882 5882 5882 5882 5882 5882 5881 5881 5881 5881 5880 5880 5879 5879 5879 5878 5878 5877 5876 5875 5875 5874 5873 5872 5872 5871 5870 5869 5868 5867 5865 5864 5862 5861 5860 5859 5859 5858 5857 5856 5855 5854 5853 5852 5851 5850 5849 5848 5847 5846 5845 5844 5843 5842 5841 5839 5838 5836 5835 5834 5833 5831 5830 5829 5828
5876 5876 5876 5877 5877 5877 5877 5877 5877 5877 5878 5878 5879 5879 5879 5879 5879 5879 5879 5879 5879 5879 5879 5879 5879 5879 5879 5879 5879 5879 5879 5878 5878 5878 5877 5877 5877 5876 5876 5876 5875 5874 5874 5873 5872 5871 5870 5870 5869 5868 5867 5866 5865 5864 5863 5861 5860 5858 5857 5856 5855 5855 5854 5853 5852 5851 5850 5849 5848 5848 5846 5845 5843 5842 5842 5840 5839 5838 5837 5835 5834 5833 5831 5830 5829 5827 5826 5825
5873 5873 5873 5874 5874 5874 5874 5874 5874 5874 5875 5875 5875 5876 5876 5876 5876 5876 5876 5876 5876 5876 5876 5876 5876 5876 5876 5876 5876 5875 5876 5876 5875 5875 5875 5874 5874 5874 5873 5873 5873 5872 5871 5870 5869 5868 5868 5867 5866 5866 5865 5864 5863 5862 5861 5860 5859 5857 5855 5854 5853 5852 5851 5850 5849 5849 5848 5847 5847 5846 5845 5843 5841 5840 5839 5838 5837 5836 5835 5833 5831 5830 5829 5827 5826 5824 5823 5822
5869 5870 5870 5870 5870 5871 5871 5871 5871 5871 5871 5872 5872 5872 5872 5872 5872 5872 5872 5872 5872 5872 5873 5873 5873 5873 5873 5873 5873 5872 5872 5872 5872 5872 5872 5871 5871 5871 5870 5870 5870 5869 5869 5868 5867 5866 5865 5864 5864 5863 5862 5862 5861 5860 5860 5858 5857 5856 5854 5852 5851 5850 5849 5847 5846 5846 5845 5844 5844 5844 5844 5841 5837 5837 5837 5836 5835 5833 5832 5831 5829 5827 5826 5824 5823 5821 5820 5819
5866 5866 5866 5867 5867 5867 5867 5868 5868 5868 5868 5868 5868 5869 5869 5869 5869 5869 5868 5869 5869 5869 5869 5869 5869 5869 5869 5869 5869 5869 5869 5869 5869 5869 5868 5868 5868 5868 5867 5867 5866 5866 5865 5865 5864 5863 5862 5862 5861 5860 5859 5859 5858 5858 5857 5856 5855 5854 5852 5851 5849 5847 5846 5845 5843 5842 5841 5840 5840 5841 5842 5841 5835 5833 5834 5834 5832 5831 5830 5828 5826 5824 5822 5821 5820 5818 5817 5815
5862 5863 5863 5863 5863 5863 5864 5864 5864 5864 5864 5865 5865 5865 5865 5865 5865 5865 5865 5865 5865 5865 5865 5866 5866 5866 5866 5866 5866 5866 5866 5865 5865 5865 5865 5865 5865 5864 5864 5863 5863 5863 5862 5862 5861 5861 5860 5859 5858 5857 5857 5856 5855 5854 5854 5853 5852 5851 5850 5849 5847 5845 5844 5842 5840 5839 5838 5836 5836 5836 5839 5840 5835 5830 5830 5830 5829 5828 5827 5825 5823 5821 5819 5817 5816 5814 5813 5811
5858 5859 5859 5859 5859 5860 5860 5860 5860 5861 5861 5861 5861 5861 5862 5862 5862 5862 5862 5862 5862 5862 5862 5862 5862 5862 5863 5863 5862 5862 5862 5862 5861 5861 5861 5861 5861 5861 5861 5860 5860 5859 5859 5858 5858 5857 5857 5856 5855 5855 5854 5853 5852 5851 5850 5850 5849 5848 5847 5846 5845 5843 5841 5839 5837 5836 5834 5832 5832 5831 5833 5838 5835 5829 5827 5827 5826 5825 5825 5823 5820 5818 5816 5814 5813 5811 5809 5808
5854 5855 5855 5855 5856 5856 5856 5856 5857 5857 5857 5857 5857 5857 5857 5858 5858 5858 5858 5858 5858 5858 5858 5858 5858 5858 5859 5860 5859 5858 5858 5858 5858 5858 5858 5858 5858 5858 5857 5856 5856 5856 5855 5855 5854 5854 5853 5852 5852 5851 5851 5850 5849 5848 5847 5846 5846 5844 5843 5843 5842 5840 5839 5837 5834 5832 5830 5828 5829 5827 5827 5833 5834 5829 5825 5823 5822 5822 5822 5819 5816 5814 5813 5811 5810 5808 5806 5804
5851 5851 5851 5852 5852 5852 5852 5853 5853 5853 5853 5853 5853 5852 5853 5854 5854 5854 5854 5854 5854 5854 5854 5854 5854 5854 5855 5856 5855 5855 5854 5855 5855 5854 5855 5854 5854 5854 5853 5853 5853 5852 5852 5851 5851 5850 5850 5849 5848 5848 5847 5846 5845 5844 5843 5843 5842 5840 5839 5838 5838 5837 5836 5834 5831 5829 5826 5824 5825 5823 5822 5827 5829 5827 5824 5821 5818 5818 5818 5816 5813 5811 5809 5808 5806 5804 5803 5801
5847 5847 5847 5848 5848 5848 5849 5849 5849 5849 5849 5849 5849 5849 5848 5849 5850 5850 5850 5850 5850 5850 5850 5850 5850 5850 5851 5852 5852 5851 5850 5851 5851 5851 5851 5851 5851 5850 5850 5849 5849 5849 5848 5848 5847 5847 5846 5845 5845 5844 5844 5843 5841 5840 5839 5839 5838 5837 5835 5834 5834 5833 5832 5831 5828 5825 5822 5820 5821 5818 5817 5821 5824 5823 5821 5818 5815 5814 5814 5812 5809 5808 5806 5804 5802 5800 5799 5797
5842 5843 5843 5843 5844 5844 5844 5845 5845 5845 5846 5845 5845 5845 5844 5844 5846 5846 5846 5846 5846 5846 5845 5846 5846 5846 5846 5847 5847 5847 5846 5846 5847 5848 5848 5848 5847 5847 5846 5846 5845 5845 5844 5844 5843 5842 5841 5841 5841 5841 5841 5839 5837 5836 5835 5835 5834 5833 5831 5830 5830 5829 5828 5827 5824 5821 5818 5816 5816 5814 5811 5815 5819 5820 5818 5814 5811 5810 5810 5808 5805 5804 5802 5800 5798 5797 5795 5793
5838 5838 5838 5839 5839 5839 5840 5840 5841 5841 5842 5841 5841 5841 5840 5840 5841 5841 5841 5841 5842 5841 5841 5841 5841 5841 5842 5843 5842 5842 5842 5842 5843 5844 5844 5844 5843 5843 5842 5842 5841 5841 5840 5840 5839 5838 5837 5837 5837 5838 5836 5833 5832 5832 5831 5830 5829 5828 5826 5825 5824 5824 5824 5823 5819 5817 5814 5810 5812 5811 5806 5808 5813 5816 5815 5811 5807 5806 5805 5803 5801 5800 5798 5796 5795 5793 5791 5789
5833 5834 5834 5834 5835 5835 5835 5835 5836 5837 5837 5837 5837 5837 5836 5836 5836 5836 5836 5837 5837 5836 5836 5836 5836 5837 5838 5838 5837 5837 5838 5838 5839 5840 5840 5839 5839 5838 5838 5837 5837 5836 5836 5835 5833 5833 5833 5832 5834 5834 5831 5829 5828 5828 5827 5825 5824 5823 5821 5820 5820 5819 5819 5818 5815 5813 5810 5805 5806 5807 5801 5802 5807 5809 5811 5807 5802 5801 5800 5798 5797 5796 5794 5792 5791 5789 5787 5785
5829 5829 5829 5829 5830 5830 5830 5831 5832 5832 5832 5833 5833 5832 5832 5831 5831 5831 5831 5831 5831 5831 5831 5831 5831 5832 5833 5833 5833 5833 5833 5834 5835 5836 5835 5834 5834 5833 5833 5833 5832 5831 5831 5830 5828 5828 5827 5827 5830 5829 5825 5825 5824 5823 5822 5821 5819 5818 5816 5815 5815 5815 5813 5813 5811 5808 5806 5801 5800 5801 5796 5798 5802 5802 5805 5804 5799 5796 5795 5794 5793 5791 5790 5788 5787 5785 5783 5780
5824 5825 5825 5824 5825 5825 5825 5826 5827 5827 5827 5828 5828 5828 5828 5827 5826 5826 5825 5825 5827 5826 5825 5826 5826 5826 5828 5828 5828 5829 5829 5830 5831 5831 5830 5829 5829 5828 5827 5827 5827 5826 5826 5825 5823 5823 5822 5823 5825 5824 5821 5821 5819 5818 5818 5816 5815 5813 5811 5810 5810 5810 5807 5806 5806 5804 5801 5796 5794 5794 5790 5792 5797 5797 5799 5800 5796 5792 5789 5789 5789 5787 5786 5784 5783 5781 5778 5776
5819 5820 5820 5819 5819 5820 5820 5821 5822 5822 5822 5822 5823 5823 5823 5823 5821 5821 5819 5817 5820 5822 5821 5820 5820 5821 5822 5823 5824 5824 5824 5825 5826 5826 5826 5824 5824 5823 5822 5822 5821 5821 5821 5820 5818 5816 5816 5819 5820 5819 5817 5816 5815 5814 5813 5812 5810 5808 5806 5805 5805 5805 5801 5799 5800 5798 5796 5792 5789 5787 5783 5784 5789 5790 5794 5795 5793 5790 5784 5784 5784 5782 5781 5780 5779 5776 5773 5770
5814 5815 5815 5814 5814 5815 5815 5815 5816 5817 5817 5817 5817 5818 5818 5818 5817 5816 5814 5810 5810 5815 5818 5816 5814 5815 5817 5819 5819 5820 5820 5821 5822 5822 5821 5819 5819 5818 5817 5817 5815 5815 5816 5814 5812 5810 5812 5813 5813 5813 5813 5811 5810 5809 5808 5807 5805 5803 5802 5801 5800 5799 5797 5794 5792 5791 5790 5787 5785 5782 5776 5776 5778 5780 5785 5788 5788 5787 5782 5779 5777 5776 5776 5775 5774 5772 5768 5765
5809 5809 5809 5809 5809 5809 5810 5810 5810 5812 5812 5811 5811 5812 5812 5812 5812 5811 5809 5804 5799 5806 5813 5811 5809 5810 5813 5814 5814 5816 5815 5816 5817 5817 5816 5815 5814 5812 5812 5811 5810 5811 5811 5809 5806 5805 5807 5809 5808 5808 5807 5806 5805 5804 5804 5801 5798 5797 5797 5798 5795 5793 5792 5789 5787 5784 5782 5781 5780 5778 5773 5769 5767 5769 5775 5779 5779 5780 5780 5777 5771 5768 5769 5770 5769 5767 5763 5760
5803 5804 5804 5804 5803 5804 5804 5804 5805 5806 5806 5806 5806 5806 5806 5806 5807 5805 5804 5798 5790 5794 5803 5805 5805 5807 5809 5810 5811 5811 5810 5811 5813 5812 5811 5810 5809 5807 5807 5807 5806 5806 5806 5804 5800 5800 5803 5805 5803 5802 5801 5800 5799 5799 5799 5796 5792 5791 5792 5793 5790 5788 5787 5784 5782 5779 5776 5774 5772 5774 5773 5763 5755 5760 5768 5770 5770 5772 5774 5773 5768 5763 5762 5763 5763 5760 5756 5753
5798 5799 5799 5799 5799 5798 5798 5798 5799 5799 5800 5800 5800 5800 5800 5800 5801 5800 5798 5790 5781 5783 5791 5796 5801 5803 5805 5807 5808 5807 5805 5806 5808 5807 5806 5805 5804 5803 5802 5802 5802 5801 5800 5798 5795 5796 5799 5800 5798 5797 5796 5795 5794 5794 5793 5791 5787 5785 5786 5787 5785 5784 5781 5778 5777 5774 5772 5769 5764 5769 5773 5759 5746 5751 5761 5763 5765 5767 5767 5767 5764 5760 5757 5756 5756 5753 5749 5745
5793 5794 5794 5794 5794 5793 5793 5793 5793 5794 5794 5794 5794 5795 5794 5795 5795 5795 5793 5781 5770 5773 5780 5788 5796 5798 5801 5803 5803 5803 5801 5801 5802 5801 5801 5800 5799 5798 5797 5797 5796 5795 5794 5792 5790 5792 5794 5793 5793 5792 5791 5790 5790 5789 5787 5785 5783 5781 5781 5780 5779 5778 5775 5773 5771 5768 5768 5763 5758 5766 5770 5757 5743 5743 5753 5758 5759 5760 5760 5760 5758 5756 5754 5751 5750 5746 5742 5738
5787 5788 5788 5789 5788 5788 5788 5787 5787 5788 5787 5788 5789 5788 5788 5789 5788 5788 5785 5770 5761 5767 5774 5781 5788 5793 5796 5797 5797 5797 5796 5795 5795 5795 5796 5794 5793 5792 5791 5791 5790 5789 5789 5787 5786 5788 5788 5787 5787 5786 5786 5786 5784 5783 5781 5780 5778 5777 5776 5774 5773 5771 5769 5767 5764 5763 5763 5755 5754 5762 5762 5753 5740 5735 5747 5754 5753 5753 5753 5753 5752 5751 5749 5746 5744 5740 5735 5732
5781 5782 5783 5783 5783 5783 5782 5782 5782 5781 5782 5782 5782 5782 5782 5782 5782 5781 5771 5758 5758 5766 5770 5774 5780 5786 5790 5791 5791 5791 5790 5789 5789 5788 5788 5788 5787 5786 5785 5785 5785 5784 5783 5782 5782 5783 5783 5782 5781 5781 5781 5780 5779 5778 5776 5775 5774 5773 5771 5769 5767 5765 5762 5760 5758 5758 5756 5749 5751 5756 5754 5749 5735 5729 5742 5749 5747 5748 5747 5746 5745 5744 5742 5740 5737 5733 5728 5726
5775 5776 5777 5777 5777 5777 5777 5776 5776 5776 5776 5776 5776 5776 5775 5775 5775 5769 5754 5751 5760 5764 5765 5769 5774 5779 5782 5783 5784 5785 5784 5784 5783 5782 5782 5781 5780 5779 5780 5780 5779 5778 5777 5776 5777 5778 5777 5776 5776 5776 5775 5775 5774 5772 5771 5770 5769 5768 5766 5764 5761 5758 5755 5753 5752 5753 5749 5743 5746 5748 5747 5742 5729 5727 5739 5740 5739 5742 5742 5741 5740 5737 5735 5733 5730 5725 5722 5721
5768 5769 5770 5771 5771 5771 5771 5770 5770 5771 5770 5769 5769 5769 5769 5768 5763 5753 5746 5752 5759 5757 5760 5767 5769 5771 5774 5775 5777 5778 5778 5777 5777 5777 5775 5774 5773 5773 5774 5774 5773 5772 5770 5771 5771 5771 5770 5770 5770 5769 5770 5770 5768 5766 5765 5764 5763 5762 5760 5758 5755 5752 5749 5747 5746 5745 5741 5738 5740 5741 5738 5732 5724 5728 5735 5732 5731 5735 5736 5737 5735 5732 5730 5727 5722 5719 5717 5715
5761 5762 5763 5764 5765 5765 5764 5763 5763 5763 5763 5763 5762 5761 5762 5758 5747 5743 5746 5752 5754 5753 5758 5762 5762 5764 5765 5766 5768 5770 5770 5770 5770 5770 5769 5768 5767 5767 5767 5767 5767 5766 5764 5765 5764 5762 5762 5763 5764 5763 5764 5763 5761 5760 5759 5757 5757 5755 5754 5752 5749 5747 5743 5741 5740 5737 5732 5733 5735 5734 5730 5723 5721 5726 5727 5723 5725 5729 5732 5732 5729 5726 5725 5720 5716 5714 5712 5710
5753 5755 5755 5756 5758 5758 5756 5756 5756 5756 5756 5755 5754 5755 5754 5745 5737 5739 5745 5749 5751 5753 5754 5754 5755 5756 5757 5757 5758 5760 5762 5762 5763 5763 5762 5762 5760 5760 5761 5761 5761 5760 5759 5758 5756 5755 5755 5754 5756 5757 5756 5756 5755 5754 5752 5751 5749 5748 5747 5745 5743 5743 5740 5736 5734 5729 5726 5728 5729 5726 5723 5718 5718 5720 5717 5714 5718 5723 5725 5726 5723 5721 5719 5714 5710 5709 5707 5703
5745 5747 5748 5749 5750 5749 5747 5747 5747 5748 5747 5747 5747 5746 5742 5736 5734 5739 5743 5745 5748 5749 5749 5749 5749 5749 5749 5749 5749 5752 5754 5754 5755 5755 5754 5753 5753 5753 5754 5754 5755 5754 5753 5751 5750 5750 5747 5746 5749 5748 5748 5749 5748 5747 5746 5744 5742 5741 5740 5738 5737 5738 5735 5729 5726 5725 5723 5721 5722 5720 5715 5714 5716 5712 5708 5710 5715 5718 5719 5719 5716 5715 5712 5708 5704 5703 5700 5695
5737 5739 5740 5742 5743 5740 5737 5738 5738 5737 5737 5738 5737 5736 5733 5733 5735 5737 5738 5740 5741 5743 5743 5742 5742 5742 5741 5741 5742 5745 5746 5746 5747 5746 5745 5745 5745 5746 5746 5747 5748 5748 5747 5746 5744 5744 5740 5739 5742 5740 5739 5740 5739 5739 5740 5737 5734 5734 5734 5734 5732 5731 5728 5722 5719 5720 5719 5714 5716 5715 5708 5709 5710 5702 5700 5708 5712 5713 5713 5712 5710 5708 5705 5701 5698 5697 5693 5688
5729 5730 5731 5734 5735 5731 5729 5729 5728 5726 5726 5726 5725 5726 5729 5730 5732 5733 5732 5733 5734 5735 5735 5734 5734 5734 5734 5734 5736 5738 5738 5737 5737 5736 5737 5738 5737 5738 5739 5740 5741 5741 5741 5739 5737 5736 5734 5732 5734 5733 5730 5731 5731 5730 5730 5729 5727 5727 5727 5728 5725 5721 5720 5717 5713 5713 5712 5706 5707 5710 5705 5702 5700 5693 5694 5704 5707 5705 5705 5703 5702 5701 5698 5695 5692 5690 5685 5680
5720 5721 5721 5725 5726 5722 5721 5720 5717 5715 5714 5713 5715 5720 5722 5723 5726 5726 5725 5726 5726 5727 5726 5726 5726 5726 5726 5726 5727 5729 5729 5729 5730 5729 5729 5729 5728 5729 5732 5733 5733 5734 5735 5732 5728 5728 5727 5724 5725 5726 5722 5723 5724 5722 5720 5721 5721 5719 5719 5719 5716 5713 5711 5710 5707 5705 5704 5698 5696 5703 5703 5693 5688 5690 5693 5698 5702 5699 5697 5695 5693 5692 5690 5686 5684 5681 5676 5672
5710 5710 5713 5718 5717 5712 5711 5710 5708 5705 5702 5703 5709 5714 5715 5715 5716 5718 5719 5720 5720 5719 5716 5717 5719 5718 5717 5719 5719 5720 5720 5721 5722 5722 5721 5721 5720 5721 5723 5724 5725 5727 5728 5724 5720 5721 5719 5714 5715 5718 5717 5716 5717 5715 5714 5716 5714 5711 5709 5709 5707 5705 5703 5703 5701 5697 5695 5691 5687 5693 5694 5683 5679 5687 5691 5693 5697 5694 5691 5688 5685 5683 5681 5677 5675 5671 5667 5663
5700 5699 5703 5710 5709 5703 5702 5700 5698 5695 5693 5697 5703 5705 5705 5706 5708 5711 5712 5711 5710 5708 5707 5709 5710 5708 5709 5711 5711 5712 5713 5712 5713 5713 5712 5712 5712 5713 5715 5716 5717 5719 5718 5715 5712 5711 5709 5705 5704 5709 5709 5708 5708 5709 5708 5707 5705 5702 5701 5701 5700 5699 5697 5694 5692 5690 5688 5685 5682 5681 5680 5674 5674 5682 5686 5686 5688 5686 5683 5681 5677 5676 5673 5669 5666 5663 5659 5656
5690 5688 5695 5702 5698 5695 5693 5688 5687 5687 5687 5691 5695 5696 5696 5699 5702 5704 5703 5700 5699 5698 5699 5701 5701 5701 5702 5703 5703 5705 5704 5702 5703 5702 5700 5703 5704 5705 5708 5710 5710 5710 5708 5705 5703 5702 5699 5695 5695 5697 5698 5698 5700 5701 5698 5695 5695 5694 5692 5693 5694 5694 5692 5684 5682 5684 5683 5678 5675 5670 5665 5665 5669 5677 5680 5678 5677 5676 5676 5673 5669 5667 5664 5661 5658 5654 5651 5648
5678 5679 5688 5691 5685 5686 5683 5677 5679 5679 5677 5682 5687 5688 5690 5692 5694 5695 5694 5693 5690 5690 5691 5693 5694 5695 5695 5695 5696 5696 5695 5692 5693 5692 5690 5693 5695 5697 5702 5703 5701 5700 5698 5694 5693 5693 5689 5685 5685 5685 5687 5690 5693 5692 5689 5686 5685 5683 5683 5687 5687 5686 5684 5678 5674 5676 5674 5669 5666 5659 5651 5653 5666 5675 5675 5671 5668 5669 5669 5666 5662 5658 5654 5651 5648 5645 5643 5640
5666 5670 5677 5676 5674 5676 5671 5665 5668 5668 5669 5677 5680 5680 5681 5681 5683 5685 5686 5685 5683 5683 5684 5685 5686 5686 5686 5688 5687 5687 5687 5684 5683 5683 5682 5683 5687 5691 5694 5695 5692 5689 5687 5685 5684 5683 5679 5674 5674 5674 5676 5681 5683 5682 5680 5677 5676 5675 5677 5680 5678 5675 5675 5671 5666 5665 5662 5658 5656 5649 5640 5644 5662 5671 5668 5663 5661 5661 5662 5660 5655 5650 5647 5644 5640 5638 5636 5633
5660 5660 5661 5661 5662 5662 5657 5657 5660 5660 5663 5669 5669 5670 5672 5671 5673 5677 5677 5677 5676 5677 5676 5676 5677 5676 5677 5680 5679 5679 5679 5674 5672 5675 5675 5676 5680 5684 5684 5684 5682 5679 5677 5677 5675 5672 5668 5664 5663 5663 5663 5667 5671 5671 5670 5669 5669 5669 5671 5671 5667 5667 5667 5662 5659 5656 5649 5646 5647 5639 5630 5639 5657 5662 5657 5656 5655 5654 5655 5651 5647 5644 5640 5637 5634 5632 5630 5627
5652 5647 5646 5649 5648 5644 5646 5653 5654 5650 5654 5658 5656 5659 5662 5661 5665 5670 5669 5668 5670 5670 5668 5666 5667 5667 5670 5671 5669 5669 5669 5666 5666 5667 5668 5669 5672 5675 5675 5673 5672 5670 5668 5667 5665 5661 5656 5653 5652 5652 5650 5652 5658 5661 5662 5663 5661 5659 5661 5661 5660 5661 5659 5654 5652 5647 5637 5634 5636 5630 5624 5634 5651 5653 5649 5649 5648 5647 5647 5642 5638 5637 5633 5629 5628 5626 5624 5621
5641 5634 5633 5638 5635 5630 5635 5645 5644 5639 5645 5647 5644 5647 5651 5652 5658 5662 5660 5659 5661 5661 5658 5657 5658 5658 5659 5660 5659 5660 5662 5661 5658 5657 5661 5663 5663 5664 5665 5662 5661 5661 5659 5658 5655 5650 5644 5641 5642 5643 5640 5641 5647 5654 5657 5654 5649 5649 5652 5653 5654 5654 5652 5649 5643 5637 5630 5623 5621 5626 5626 5626 5637 5645 5643 5642 5641 5639 5638 5634 5630 5628 5624 5622 5621 5619 5617 5613
5626 5621 5623 5629 5625 5618 5622 5633 5633 5631 5637 5636 5631 5636 5642 5643 5647 5650 5649 5651 5653 5651 5647 5647 5648 5648 5650 5652 5651 5651 5654 5652 5648 5649 5655 5657 5654 5653 5652 5650 5650 5651 5651 5650 5646 5641 5633 5629 5633 5635 5632 5634 5638 5644 5648 5644 5639 5641 5643 5644 5647 5646 5645 5642 5633 5630 5629 5613 5605 5622 5628 5616 5621 5634 5637 5636 5634 5630 5628 5626 5622 5618 5616 5615 5614 5611 5608 5604
5613 5611 5614 5619 5614 5606 5610 5622 5625 5622 5623 5622 5619 5625 5630 5631 5633 5637 5639 5642 5642 5639 5636 5636 5639 5641 5644 5647 5644 5641 5643 5641 5639 5643 5647 5646 5645 5642 5641 5642 5640 5640 5641 5638 5635 5632 5623 5619 5625 5627 5623 5626 5630 5632 5636 5632 5628 5632 5633 5634 5639 5639 5635 5632 5625 5626 5626 5607 5598 5614 5618 5607 5612 5624 5627 5629 5627 5620 5618 5617 5614 5611 5609 5607 5604 5601 5598 5595
5604 5602 5604 5605 5600 5596 5601 5610 5614 5608 5607 5609 5608 5610 5616 5619 5622 5627 5630 5629 5627 5629 5628 5627 5632 5637 5637 5638 5634 5630 5632 5633 5632 5636 5637 5634 5633 5631 5630 5630 5630 5629 5629 5626 5624 5622 5614 5611 5619 5620 5613 5615 5620 5623 5625 5621 5617 5619 5622 5625 5631 5631 5626 5622 5619 5621 5619 5605 5599 5605 5602 5599 5609 5616 5616 5618 5617 5610 5608 5608 5607 5604 5601 5597 5594 5592 5589 5587
5593 5593 5596 5592 5586 5588 5591 5595 5598 5594 5594 5598 5594 5596 5606 5609 5611 5618 5618 5615 5616 5620 5619 5618 5625 5629 5628 5626 5622 5617 5622 5627 5625 5628 5629 5623 5619 5619 5617 5618 5621 5619 5617 5617 5616 5612 5607 5605 5611 5612 5601 5599 5610 5616 5613 5609 5606 5606 5608 5614 5622 5622 5617 5614 5614 5615 5610 5601 5598 5598 5590 5591 5605 5610 5605 5605 5606 5603 5600 5599 5598 5596 5592 5587 5584 5582 5580 5579
5583 5584 5587 5579 5572 5577 5581 5581 5583 5581 5581 5584 5583 5588 5595 5596 5604 5610 5605 5602 5606 5608 5608 5611 5616 5618 5615 5611 5609 5610 5618 5620 5615 5617 5618 5611 5606 5607 5606 5608 5611 5609 5607 5609 5608 5604 5601 5598 5602 5602 5588 5587 5603 5606 5597 5597 5594 5589 5594 5606 5613 5613 5610 5608 5606 5603 5598 5593 5593 5591 5584 5585 5598 5601 5593 5592 5596 5594 5591 5589 5588 5586 5582 5578 5575 5573 5571 5571
5573 5572 5574 5569 5560 5562 5568 5571 5571 5566 5566 5573 5578 5581 5583 5585 5596 5598 5587 5586 5595 5599 5600 5602 5605 5604 5599 5597 5602 5608 5611 5607 5602 5603 5604 5600 5596 5595 5595 5596 5598 5598 5599 5601 5598 5597 5595 5591 5592 5592 5578 5577 5593 5594 5586 5584 5576 5571 5585 5600 5605 5605 5603 5598 5593 5590 5588 5585 5582 5581 5580 5584 5590 5589 5583 5584 5586 5581 5577 5578 5577 5574 5571 5569 5567 5565 5563 5564